Location: Sternwarte_Laufen
(47.9344°N, 12.9346°E)
Time: 04:34:07
(UTC+02:00)

Envisat - Visible Passes

Search period start: 28 July 2017 00:00
Search period end: 07 August 2017 00:00
Orbit: 764 x 766 km, 98.2° (Epoch: 26 July)

Date Brightness Start Highest point End Pass type
(mag) Time Alt. Az. Time Alt. Az. Time Alt. Az.
29 Jul 5.3 22:10:06 10° SW 22:13:54 21° W 22:17:44 10° NW visible
30 Jul 4.2 21:32:05 10° S 21:36:53 42° W 21:41:44 10° NNW visible
31 Jul 5.7 22:37:46 10° WSW 22:39:52 12° W 22:41:58 10° WNW visible
01 Aug 5.0 21:58:31 10° SSW 22:02:42 26° W 22:06:56 10° NW visible
02 Aug 3.8 21:20:48 10° S 21:25:45 52° W 21:30:44 10° NNW visible
03 Aug 5.6 22:25:37 10° SW 22:28:37 16° W 22:31:38 10° NW visible
04 Aug 4.7 21:47:01 10° SSW 21:51:31 32° W 21:56:03 10° NNW visible
05 Aug 3.5 21:09:36 10° S 21:14:38 65° WSW 21:19:42 10° NNW visible
06 Aug 5.4 22:13:47 10° SW 22:17:23 19° W 22:21:01 10° NW visible
